Back to catalog

YZ-1 R/B

AliveMEO
NORAD 44544·ROCKET BODY·🇨🇳 China

Launched Sep 22, 2019 from Xichang Satellite Launch Center

Loading…

Next Passes (next 24 hours)

TLE

FreshSource: Space-Track

Epoch: Sep 14, 2026, 06:33 UTC

1 44544U 19061C   26257.27357099  .00000011  00000-0  00000-0 0  9994
2 44544  54.4341 185.7160 0034722 257.5425 102.0708  1.80432533 45994

Track YZ-1 R/B in real time with AllMySat

Download on the App Store